Regional Weather Roundup
Issued by NWS

Home | Current Version | Previous Version | Text Only | Print | Product List | Glossary Off
Versions: 1 2 3 4 5 6 7 8 9 10 11 12 13 14 15 16 17 18 19 20 21 22 23 24 25 26 27 28 29 30 31 32 33 34 35 36 37 38 39 40 41 42 43 44 45 46 47 48 49 50

690
ASUS45 KABQ 241010
RWRNM
NEW MEXICO REGIONAL WEATHER ROUNDUP
NATIONAL WEATHER SERVICE ALBUQUERQUE NM
400 AM MDT SUN JUL 24 2016

NOTE: "FAIR" MEANS FEW OR NO CLOUDS BELOW 12,000 FEET AGL WITH NO
       SIGNIFICANT WEATHER OR OBSTRUCTIONS TO VISION.

      THIS PRODUCT IS RELEASED AS TWO VERSIONS.  ONE VERSION NEAR
      THE TOP OF THE HOUR CONTAINING PRELIMINARY DATA FROM ALBUQUERQUE
      AND OTHER STATIONS.  A FINAL VERSION WITH ADDITIONAL DATA IS
      ISSUED ABOUT 10 MINUTES AFTER THE HOUR.

NMZ501-503-504-510>518-241100-
NORTHWEST PLATEAU/NORTHCENTRAL MOUNTAINS

CITY           SKY/WX    TMP DP  RH WIND       PRES   REMARKS
FARMINGTON     FAIR      69  46  43 N6        30.11S
LOS ALAMOS     FAIR      67  50  53 NE3       30.29S
SANTA FE       MOCLDY    68  57  68 N8        30.21S
TAOS           FAIR      59  37  44 E6        30.30F
ANGEL FIRE     FAIR      49  47  93 CALM      30.42S

$$
NMZ402-403-502-505>509-241100-
WESTCENTRAL MOUNTAINS/SOUTHWEST MOUNTAINS

CITY           SKY/WX    TMP DP  RH WIND       PRES   REMARKS
GALLUP         FAIR      61  53  75 CALM      30.22R
GRANTS         FAIR      65  50  56 CALM      30.23S
SILVER CITY    FAIR      70  47  44 NW10      30.11F

$$
NMZ407-409-411-412-241100-
SOUTHERN DESERTS

CITY           SKY/WX    TMP DP  RH WIND       PRES   REMARKS
LORDSBURG      FAIR      73  46  38 SW10      30.05R
DEMING         FAIR      74  49  41 W7        30.01S
LAS CRUCES     FAIR      83  43  24 N8        30.01R
ALAMOGORDO     FAIR      75  37  25 N6        30.01S
T OR C         FAIR      77  47  34 NW8       30.06F

$$
NMZ519>523-241100-
CENTRAL VALLEYS/CENTRAL HIGHLANDS

CITY           SKY/WX    TMP DP  RH WIND       PRES   REMARKS
ALBUQUERQUE    MOCLDY    77  51  40 E8        30.11F
DOUBLE EAGLE   FAIR      73  51  45 N3        30.16F
MORIARTY ARPT  LGT RAIN  63  49  62 N3        30.22R
CLINES CORNERS FAIR      68  45  43 N5        30.27F
BELEN          FAIR      74  48  39 CALM      30.11F
SOCORRO        FAIR      76  46  34 NW5       30.08S

$$
NMZ524>526-539-540-241100-
SOUTHCENTRAL MOUNTAINS

CITY           SKY/WX    TMP DP  RH WIND       PRES   REMARKS
RUIDOSO          N/A     66  41  39 W9        30.26F

$$
NMZ527>531-241100-
NORTHEAST HIGHLANDS/NORTHEAST PLAINS

CITY           SKY/WX    TMP DP  RH WIND       PRES   REMARKS
LAS VEGAS      FAIR      64  49  57 NE7       30.26S
RATON          FAIR      70  49  47 N14       30.21S
CLAYTON        FAIR      67  57  70 N8        30.11F

$$
NMZ532>537-241100-
EASTCENTRAL PLAINS

CITY           SKY/WX    TMP DP  RH WIND       PRES   REMARKS
TUCUMCARI      FAIR      72  49  44 S8        30.05F
CANNON AFB     FAIR      70  55  58 SW7       30.08S
CLOVIS AIRPORT FAIR      68  52  56 SW7       30.07F

$$
NMZ028-029-538-241100-
SOUTHEAST PLAINS

CITY           SKY/WX    TMP DP  RH WIND       PRES   REMARKS
ROSWELL        FAIR      75  47  36 NW3       30.02R
ARTESIA        FAIR      75  54  46 S6        30.00S
CARLSBAD       FAIR      77  55  46 S7        29.96F
HOBBS          FAIR      73  55  53 SE7       30.03F


$$




USA.gov is the U.S. government's official web portal to all federal, state and local government web resources and services.